NIMBUS 2 DEB, 40642

Orbit data source: Space-Track

NIMBUS 2 DEB, 40642 is space debris in SSO originally from a launch on Sun, 15 May 1966 UTC launched from the Air Force Western Test Range (AFWTR). Debris objects in space refer to the collection of defunct objects orbiting the Earth. Examples of debris include non-operational satellites, rocket bodies, and fragments generated from explosions, collisions, or faulty payload assembly.

Loading next visibility...
Identifier
40642, 1966-040BF
Orbit
SSO
Country
Flag of USUS
Related business
Manufacturer
Unknown
Mission
Spacecraft
Bus & Motor
Unknown
Mass
Unknown
Launch date (UTC)
1966-05-15 (59 years ago)
Launch vehicle
Unknown
Launch site
Air Force Western Test Range (AFWTR)
Object type
Payload
Rocket body
Debris
Shape & HBR
Unknown shape, 0.1 m
Radar Cross Section
Small (<0.1 m²)

Expand to show TLE details & history
Last TLE update: 19 hours ago

TLE from 19 hours ago
0 NIMBUS 2 DEB
1 40642U 66040BF  25293.68501895  .00006226  00000-0  85673-2 0  9992
2 40642 100.3121 190.2244 0042545 306.0106  53.7091 13.58438224512883
Epoch: 2025-10-20T16:26Z
TLE epoch observation values (Epoch: 2025-10-20T16:26:25.637Z)
Latitude
0.00003°
Longitude
-85.76621°
Altitude
1,025.549 km
Speed
7.348 km/s
True Right ascension
12h 40m 53s
True Declination
0° 00' 00"
Sunlit
Object was in daylight at epoch
Visualization orbit readout
Latitude
Unknown
Longitude
Unknown
Altitude
Unknown
Speed
Unknown
Apparent Right ascension
Unknown
Apparent Declination
Unknown
Sunlit
N/A
Visualization observer readout
Local Sidereal Time
06:33:07
Azimuth
Unknown
Elevation
Unknown
Doppler factor
Unknown
Orbital elements
Apogee altitude
1,070.251 km
Perigee altitude
1,007.141 km
Semi-major axis
7,416.833 km
Eccentricity
0.00425
Inclination
100.3121°
RAAN
190.2244°
Arg. of periapsis
306.0106°
True anomaly
54.1033°
Mean anomaly
53.7091°
Eccentric anomaly
53.90607°
Mean motion
3.39794 °/min
Orbital period
105.95 mins
BSTAR
0.0085673
Loading maneuver chart data...
Computing Atmospheric mass density...
Loading historical data...
Loading historical data...
Loading historical data...
Loading historical data...
Loading historical data...
Loading historical data...
Loading historical data...

Documentation

Showing up to 5 results
|